Погода Чюльбю

Погода Чюльбю : погода сейчас, прогноз погоды и архив. Всё, что Вы хотите узнать о погоде Чюльбю!

Хотите узнать прогноз погоды Чюльбю? Тогда Вам сюда: Погода Чюльбю

Поиск расширенной информации на нашем сайте:

Другие новости

Новости СМИ2

Главная страница сайта

Новости сайта

03.07.2017

Напоминаем, что на нашем специализированном сайте Метеоцентр.Азия вы можете получить высокодетализированные автоматические прогнозы погоды по пунктам России, СНГ и мира в авиационном формате (включающие направление и скорость ветра, видимость, явления погоды, количество и форму облачности, нижнюю и верхнюю границу облачности).

Рекомендуем: купить хозтовары оптом спб

Погода Чюльбю - сегодня

Время (UTC), дата Ветер
(°,м/с) 
Видим.   Явления Облачность Т
(°С)
Тd
(°С)
f(%) Тe
(°С)
Pmin
(гПа)
dP
(гПа)
Po
(мм)
O2
(г/м3)
Тmin Tmax R s Состояние
почвы
15 16.01.18 190 (Ю) 20000 м    4/0 верхняя 
[Ci fib]
-32.2 -35.3 74 -33  1018.9  -0.7  737  339           
18 16.01.18 190 (Ю) 20000 м    ясно 
-33.4 -36.3 75 -34  1020.4  1.3  738  341           
21 16.01.18 340 (С) 20000 м    ясно 
-38.2 -40.9 75 -39  1022.8  1.5  739  348           
00 17.01.18 010 (С) 20000 м    ясно 
-40.5 -43.3 74 -42  1024.4  1.1  740  352  -40.7      21  равномерный
сухой снег
100% 
03 17.01.18 тихо ()   20000 м    5/0 верхняя 
[Ci fib]
-39 -41.8 75 -39  1024.9  0.8  741  350           
06 17.01.18 120 (ЮВ) 20000 м    10/0 верхняя 
[Cs]
-32 -35 75 -33  1021.3  -2.4  739  339           
09 17.01.18 тихо ()   20000 м    8/0 верхняя 
[Ci fib]
-35.2 -38 75 -35  1021.8  739  344           
12 17.01.18 310 (СЗ) 20000 м    10/0 средняя, верхняя 
[As trans|Ci fib]
-34.7 -37.7 74 -36  1022.4  0.6  739  343    -31.4       
15 17.01.18 тихо ()   20000 м  слаб. снег  10/0 верхняя 
[Cs]
-34.1 -37.1 74 -34  1021.2  -1  739  342           
18 17.01.18 тихо ()   20000 м  слаб. снег  10/0 верхняя 
[Cs]
-36 -39 74 -36  1021.2  -0.3  738  345           
21 17.01.18 320 (СЗ) 20000 м  слаб. снег  10/0 верхняя 
[Cs]
-36.1 -39 75 -37  1022.2  739  345           
00 18.01.18 210 (ЮЗ) 20000 м  {снег}  10/0 верхняя 
[Cs]
-37.1 -40.1 74 -38  1022.6  0.2  739  347  -34.3    0.2  21  равномерный
сухой снег
100% 
03 18.01.18 170 (Ю) 20000 м    8/0 верхняя 
[Ci fib]
-36.1 -39 75 -37  1022.3  -0.1  739  345           
06 18.01.18 210 (ЮЗ) 20000 м    ясно 
-32.1 -35.7 70 -33  1019.7  -1.9  738  339           
09 18.01.18 тихо ()   20000 м    ясно 
-37.3 -40.1 75 -37  1021.8  1.2  739  347           
12 18.01.18 тихо ()   20000 м    ясно 
-39.7 -41.3 85 -40  1023.7  1.4  740  351    -31.5       
15 18.01.18 тихо ()   20000 м    ясно 
-41.2 -43.8 76 -41  1024.7  0.8  740  353           
18 18.01.18 тихо ()   20000 м    ясно 
-42.2 -45 74 -42  1026.2  1.3  741  355           
21 18.01.18 320 (СЗ) 20000 м    ясно 
-43 -45.6 75 -44  1027.7  1.3  742  357           
00 19.01.18 тихо ()   20000 м    ясно 
-43.9 -46.3 77 -44  1029  743  359  -44.2      21  равномерный
сухой снег
100% 
03 19.01.18 210 (ЮЗ) 20000 м    8/0 верхняя 
[Ci fib]
-42 -45 73 -43  1029.7  1.1  744  356           
06 19.01.18 тихо ()   20000 м    10/0 верхняя 
[Cs]
-37.4 -40.1 76 -37  1028.5  -0.4  744  349           
09 19.01.18 тихо ()   20000 м    5/0 верхняя 
[Ci fib]
-38.8 -41.8 73 -39  1030.2  1.3  745  352           
12 19.01.18 тихо ()   20000 м    4/0 верхняя 
[Ci fib]
-39.9 -42.8 74 -40  1032  1.6  746  354    -37.4       
15 19.01.18 тихо ()   20000 м    ясно 
-42.2 -45 74 -42  1033.7  1.3  747  358           
Время (UTC), дата Ветер
(°,м/с) 
Видим.   Явления Облачность Т
(°С)
Тd
(°С)
f(%) Тe
(°С)
Pmin
(гПа)
dP
(гПа)
Po
(мм)
O2
(г/м3)
Тmin Tmax R s Состояние
почвы

Для получения пояснительной информации подведите курсор к названию столбца.

ПОГОДА Чюльбю - архив

Всё, что Вы хотите узнать о погоде Чюльбю - удобно и подробно!

Выберите нужную дату (начиная с 1 января 2015* года) и нажмите кнопку "Найти".
Будут отображены архивные сводки погоды по пункту Чюльбю, начиная с указанной даты.


Отображать данные в формате CSV (для использования в таблицах Excel)


Внимание! Наш архив погоды предназначен исключительно для личного некоммерческого использования в познавательных целях. Если Вам необходимы официальные справки о состоянии погоды (для производственных, юридических, коммерческих и т.п. целей), обращайтесь в органы Росгидромета.

*Примечание: данная дата относится к архиву по метеостанциям СССР (Россия, СНГ, Балтия).
Архив по метеостанциям Зарубежной Европы и Азии (кроме Китая) хранится 10 дней, по другим регионам земного шара (Китай, Африка, Америка, Австралия, Океания) - 1 день.

Чюльбю - район местоположения метеостанции


Название, широта, долгота, высота метеостанции:
Чюльбю 57.8°ш. 130.9°д. 255 м над ур. моря [Российская Федерация]

Дополнительная информация

В oтличие oт бoльшинства пoгoдных сайтoв мы публикуем пoдрoбную метеoинфoрмацию в детальнoм прoфессиoнальнoм фoрмате.

Характеристики температуры и влажнoсти вoздуха измеряются на высoте 2 м в тени вдали oт зданий и деревьев.
Скoрoсть ветра измеряется на высoте 10 м (на урoвне рoста челoвека скoрoсть ветра ниже в 1.5-2 раза). Если метеoстанция нахoдится в гoрoде или в лесу, тo скoрoсть ветра занижена на 2-4 м/с пo сравнению с oткрытым местoм. Скoрoсть ветра над акватoриями крупных рек и oзёр, а также на вершинах хoлмoв на 2-5 м/с выше, чем в oбычных услoвиях.
Атмoсфернoе давление в разных тoчках местнoсти мoжет значительнo oтличаться oт давления на метеoстанции, в зависимoсти oт услoвий рельефа (при пoдъёме на 10 м давление пoнижается примернo на 1 мм рт.ст.).